Terminal Aerodrome Forecast
Issued by NWS

Home | Current Version | Previous Version | Text Only | Print | Product List | Glossary On
Versions: 1 2 3 4 5 6 7 8 9 10 11 12
000
FTUS45 KPSR 050520
TAFBLH
TAF
KBLH 050520Z 0506/0606 19010KT P6SM FEW250
     FM051900 18013G20KT P6SM FEW120 FEW250
     FM060100 20010KT P6SM FEW250=

USA.gov is the U.S. government's official web portal to all federal, state and local government web resources and services.